Find Kosmos-2015

NORAD ID: 19909 Int'l Des: 1989-025 Owner: UNKS Country: SU operational
LEOCIRCULAR

Live-Position

3D-Globus wird geladen...

Über Kosmos-2015

Beschreibung wird geladen...

Nächste Überflüge

Passes for default location (London). Set your location on the main map for personalized predictions.

Höhenverlauf

Loading altitude history...

Zweizeiliger Elementsatz

1 19909U 89025H 26107.29487111 -.00000023 00000-0 -53601-4 0 9997
2 19909 74.0103 224.8801 0025873 317.0837 69.1930 12.44065701683212
Epoch: 17. Apr. 2026 • Age: 8 hours

Aktueller Status

Höhe 1477.8 km
Geschwindigkeit 7.13 km/s
Subsatellitenpunkt 5.10°N, 159.94°E
Startdatum 24. März 1989
Alter 37 years
Typ other

Technische Details

Klassifizierung Payload
Masse 60.00 kg
Trockenmasse 60.00 kg
Gesamtmasse 60.00 kg
Länge 0.80 m
Durchmesser 0.80 m
Spannweite 0.80 m
Form Poly
Hersteller NPOPM
Bus-Typ Strela-1 11F625
Phasenstatus In Orbit
Besitzer/Staat UNKS/SU

Most Searched